Location: Luxembourg
(49.6117°N, 6.1300°E)
Time: 11:41:35
(UTC+01:00)

OTV 5 (USA 277) - Pass Details

Date: 28 January 2019
Orbit: 342 x 346 km, 54.5° (Epoch: 17 February)

Event Time Altitude Azimuth Distance (km) Brightness Sun altitude
Exits shadow 07:05:42 - 230° (SW) 1,529 ? -11.1°
Reaches altitude 10° 07:06:17 10° 229° (SW) 1,290 ? -11.0°
Maximum altitude 07:09:06 60° 148° (SSE) 397 ? -10.5°
Drops below altitude 10° 07:11:57 10° 67° (ENE) 1,298 ? -10.1°
Sets 07:13:58 0° 64° (ENE) 2,141 ? -9.8°
